• In Belarus
  • List of Countries
  • For 7 days
  • Water Temperature
  • Satellite Maps
  • Weather Map
  • Weather Widgets
  • user-avatar
    Login

    Hourly Weather Montana

    Today, 26 September, Wednesday

    Time Temperature Precipitation Wind Pressure Humidity
    00:00 +6°C° 0 mm 2 mps 746 mmHg 61%
    01:00 +7°C° 0 mm 1 mps 746 mmHg 63%
    02:00 +6°C° 0 mm 1 mps 746 mmHg 65%
    03:00 +6°C° 0 mm 1 mps 747 mmHg 67%
    04:00 +5°C° 0 mm 1 mps 747 mmHg 68%
    05:00 +5°C° 0 mm 1 mps 747 mmHg 69%
    06:00 +6°C° 0 mm 1 mps 747 mmHg 64%
    07:00 +7°C° 0 mm 1 mps 747 mmHg 59%
    08:00 +8°C° 0 mm 1 mps 748 mmHg 55%
    09:00 +10°C° 0 mm 1 mps 748 mmHg 49%
    10:00 +12°C° 0 mm 2 mps 748 mmHg 43%
    11:00 +14°C° 0 mm 2 mps 747 mmHg 37%
    12:00 +15°C° 0 mm 2 mps 747 mmHg 35%
    13:00 +14°C° 0 mm 3 mps 747 mmHg 33%
    14:00 +16°C° 0 mm 3 mps 746 mmHg 31%
    15:00 +14°C° 0 mm 3 mps 746 mmHg 32%
    16:00 +14°C° 0 mm 3 mps 746 mmHg 33%
    17:00 +14°C° 0 mm 3 mps 746 mmHg 35%
    18:00 +13°C° 0 mm 2 mps 746 mmHg 40%
    19:00 +10°C° 0 mm 2 mps 746 mmHg 45%
    20:00 +8°C° 0 mm 2 mps 747 mmHg 51%
    21:00 +9°C° 0 mm 1 mps 747 mmHg 52%
    22:00 +8°C° 0 mm 1 mps 747 mmHg 54%
    23:00 +8°C° 0 mm 1 mps 748 mmHg 55%

    Tomorrow, 27 September, Thursday

    Time Temperature Precipitation Wind Pressure Humidity
    00:00 +7°C° 0 mm 1 mps 747 mmHg 55%
    01:00 +7°C° 0 mm 1 mps 747 mmHg 56%
    02:00 +7°C° 0 mm 1 mps 747 mmHg 57%
    03:00 +6°C° 0 mm 1 mps 747 mmHg 57%
    04:00 +6°C° 0 mm 1 mps 747 mmHg 58%
    05:00 +6°C° 0 mm 1 mps 746 mmHg 59%
    06:00 +7°C° 0 mm 1 mps 746 mmHg 54%
    07:00 +8°C° 0 mm 1 mps 746 mmHg 50%
    08:00 +10°C° 0 mm 1 mps 746 mmHg 45%
    09:00 +12°C° 0 mm 1 mps 746 mmHg 40%
    10:00 +14°C° 0 mm 1 mps 746 mmHg 34%
    11:00 +16°C° 0 mm 2 mps 745 mmHg 29%
    12:00 +17°C° 0 mm 2 mps 745 mmHg 27%
    13:00 +18°C° 0 mm 2 mps 744 mmHg 24%
    14:00 +18°C° 0 mm 2 mps 743 mmHg 22%
    15:00 +18°C° 0 mm 2 mps 743 mmHg 23%
    16:00 +18°C° 0 mm 2 mps 742 mmHg 23%
    17:00 +17°C° 0 mm 2 mps 742 mmHg 24%
    18:00 +15°C° 0 mm 1 mps 742 mmHg 28%
    19:00 +13°C° 0 mm 1 mps 742 mmHg 32%
    20:00 +11°C° 0 mm 1 mps 742 mmHg 36%
    21:00 +10°C° 0 mm 1 mps 742 mmHg 36%
    22:00 +10°C° 0 mm 1 mps 742 mmHg 36%
    23:00 +10°C° 0 mm 1 mps 742 mmHg 37%

    Day after tomorrow, 28 September, Friday

    Time Temperature Precipitation Wind Pressure Humidity
    00:00 +9°C° 0 mm 1 mps 742 mmHg 37%
    01:00 +9°C° 0 mm 1 mps 742 mmHg 36%
    02:00 +9°C° 0 mm 1 mps 741 mmHg 36%
    03:00 +8°C° 0 mm 1 mps 741 mmHg 36%
    04:00 +8°C° 0 mm 1 mps 740 mmHg 36%
    05:00 +8°C° 0 mm 1 mps 740 mmHg 36%
    06:00 +9°C° 0 mm 1 mps 740 mmHg 34%
    07:00 +10°C° 0 mm 1 mps 740 mmHg 32%
    08:00 +12°C° 0 mm 1 mps 740 mmHg 30%
    09:00 +14°C° 0 mm 1 mps 739 mmHg 27%
    10:00 +17°C° 0 mm 2 mps 739 mmHg 23%
    11:00 +19°C° 0 mm 2 mps 739 mmHg 19%
    12:00 +20°C° 0 mm 2 mps 738 mmHg 17%
    13:00 +21°C° 0 mm 2 mps 737 mmHg 16%
    14:00 +22°C° 0 mm 3 mps 737 mmHg 15%
    15:00 +22°C° 0 mm 3 mps 736 mmHg 17%
    16:00 +21°C° 0 mm 2 mps 736 mmHg 18%
    17:00 +21°C° 0 mm 2 mps 735 mmHg 20%
    18:00 +18°C° 0 mm 2 mps 735 mmHg 23%
    19:00 +16°C° 0 mm 2 mps 735 mmHg 26%
    20:00 +14°C° 0 mm 1 mps 735 mmHg 29%
    21:00 +13°C° 0 mm 1 mps 735 mmHg 30%
    22:00 +13°C° 0 mm 1 mps 735 mmHg 30%
    23:00 +12°C° 0 mm 1 mps 735 mmHg 31%

    29 September, Saturday

    Time Temperature Precipitation Wind Pressure Humidity
    00:00 +12°C° 0 mm 1 mps 735 mmHg 31%
    01:00 +12°C° 0 mm 1 mps 735 mmHg 32%
    02:00 +12°C° 0 mm 1 mps 734 mmHg 32%
    03:00 +11°C° 0 mm 1 mps 734 mmHg 33%
    04:00 +11°C° 0 mm 1 mps 734 mmHg 33%
    05:00 +11°C° 0 mm 1 mps 734 mmHg 34%
    06:00 +12°C° 0 mm 1 mps 734 mmHg 33%
    07:00 +13°C° 0 mm 1 mps 734 mmHg 32%
    08:00 +14°C° 0 mm 1 mps 734 mmHg 31%
    09:00 +16°C° 0 mm 1 mps 734 mmHg 28%
    10:00 +19°C° 0 mm 1 mps 734 mmHg 25%
    11:00 +21°C° 0 mm 1 mps 734 mmHg 23%
    12:00 +21°C° 0 mm 2 mps 734 mmHg 22%
    13:00 +23°C° 0 mm 2 mps 733 mmHg 22%
    14:00 +24°C° 0 mm 2 mps 733 mmHg 21%
    15:00 +23°C° 0 mm 2 mps 733 mmHg 23%
    16:00 +23°C° 0 mm 2 mps 733 mmHg 25%
    17:00 +21°C° 0 mm 3 mps 733 mmHg 27%
    18:00 +19°C° 0 mm 2 mps 733 mmHg 32%
    19:00 +16°C° 0 mm 2 mps 734 mmHg 37%
    20:00 +14°C° 0 mm 1 mps 734 mmHg 42%
    21:00 +14°C° 0 mm 1 mps 734 mmHg 44%
    22:00 +13°C° 0 mm 1 mps 735 mmHg 46%
    23:00 +13°C° 0 mm 1 mps 735 mmHg 48%

    30 September, Sunday

    Time Temperature Precipitation Wind Pressure Humidity
    00:00 +12°C° 0 mm 1 mps 735 mmHg 50%
    01:00 +12°C° 0 mm 1 mps 735 mmHg 52%
    02:00 +11°C° 0 mm 1 mps 735 mmHg 54%
    03:00 +11°C° 0 mm 1 mps 736 mmHg 56%
    04:00 +11°C° 0 mm 1 mps 736 mmHg 59%
    05:00 +11°C° 0 mm 1 mps 736 mmHg 61%
    06:00 +11°C° 0 mm 1 mps 737 mmHg 62%
    07:00 +12°C° 0 mm 1 mps 737 mmHg 63%
    08:00 +13°C° 0 mm 1 mps 737 mmHg 64%
    09:00 +14°C° 0 mm 2 mps 737 mmHg 62%
    10:00 +16°C° 0 mm 2 mps 737 mmHg 60%
    11:00 +18°C° 0 mm 3 mps 737 mmHg 58%
    12:00 +18°C° 0 mm 3 mps 737 mmHg 57%
    13:00 +19°C° 0 mm 3 mps 737 mmHg 56%
    14:00 +19°C° 0 mm 3 mps 737 mmHg 55%
    15:00 +19°C° 0.1 mm 3 mps 737 mmHg 57%
    16:00 +18°C° 0.1 mm 3 mps 737 mmHg 59%
    17:00 +18°C° 0.1 mm 2 mps 736 mmHg 61%
    18:00 +17°C° 0.2 mm 2 mps 737 mmHg 65%
    19:00 +16°C° 0.2 mm 2 mps 737 mmHg 69%
    20:00 +16°C° 0.2 mm 1 mps 737 mmHg 74%
    21:00 +15°C° 0.2 mm 1 mps 737 mmHg 75%
    22:00 +15°C° 0.2 mm 2 mps 737 mmHg 76%
    23:00 +15°C° 0.2 mm 2 mps 736 mmHg 77%

    1 October, Monday

    Time Temperature Precipitation Wind Pressure Humidity
    00:00 +15°C° 0.2 mm 2 mps 736 mmHg 78%
    01:00 +15°C° 0.2 mm 2 mps 736 mmHg 79%
    02:00 +15°C° 0.2 mm 2 mps 736 mmHg 80%
    03:00 +15°C° 0.2 mm 2 mps 736 mmHg 80%
    04:00 +14°C° 0.2 mm 2 mps 735 mmHg 81%
    05:00 +14°C° 0.2 mm 1 mps 735 mmHg 82%
    06:00 +14°C° 0.5 mm 2 mps 735 mmHg 82%
    07:00 +14°C° 0.5 mm 2 mps 735 mmHg 83%
    08:00 +14°C° 0.5 mm 2 mps 735 mmHg 83%
    09:00 +14°C° 1.4 mm 2 mps 734 mmHg 84%
    10:00 +14°C° 1.4 mm 2 mps 734 mmHg 84%
    11:00 +14°C° 1.4 mm 1 mps 734 mmHg 85%
    12:00 +15°C° 1.3 mm 1 mps 734 mmHg 85%
    13:00 +15°C° 1.3 mm 1 mps 733 mmHg 85%
    14:00 +15°C° 1.3 mm 1 mps 733 mmHg 84%
    15:00 +15°C° 0.2 mm 1 mps 732 mmHg 84%
    16:00 +15°C° 0.2 mm 1 mps 732 mmHg 84%
    17:00 +15°C° 0.2 mm 1 mps 732 mmHg 84%
    18:00 +15°C° 0 mm 1 mps 732 mmHg 88%
    19:00 +14°C° 0 mm 1 mps 731 mmHg 91%
    20:00 +14°C° 0 mm 1 mps 731 mmHg 94%
    21:00 +12°C° 0 mm 0 mps 731 mmHg 94%
    22:00 +12°C° 0 mm 0 mps 731 mmHg 94%
    23:00 +12°C° 0 mm 0 mps 730 mmHg 94%
    Show more